User: anonymous   Login
Location: Unspecified
(0.0000°N, 0.0000°E)
Time: 07:09:47
(UTC+00:00)
Language:

NOSS 7 (H) - Orbit

View from above orbital plane
View from above orbital plane
View from above satellite
View from above satellite

Ground track
Ground track

The orbit data is extracted from the following two-line orbital elements,

1 16631U 86014H   18124.89639663 0.00000800  00000-0  10745-3 0    03
2 16631  63.3000  76.3021 0873262  56.0802 303.9198 13.46083800    05
Epoch (UTC): 04 May 2018 21:30:48
Eccentricity: 0.0873262
inclination: 63.3000°
perigee height: 435 km
apogee height: 1738 km
right ascension of ascending node: 76.3021°
argument of perigee: 56.0802°
revolutions per day: 13.46083800
mean anomaly at epoch: 303.9198°
orbit number at epoch: 0

The dashed part of the orbit path shows where the satellite is in the earth's shadow,  

DLR